GW3296 Weather Reports


time (UTC)temp
C
wind
direction
speed
KPH
gust
KPH
rain 1hr
cm
rain 24hr
cm
rain mn
cm
humidity
%
barometer
mb
20260506103900 7 208 0.0 0.0 0.00 0.00 0.00 95 1013.5
20260506103357 7 190 0.0 1.6 0.00 0.00 0.00 95 1013.6
20260506102854 7 183 0.0 1.6 0.00 0.00 0.00 95 1013.3
20260506102352 7 201 0.0 0.0 0.00 0.00 0.00 95 1013.2
20260506101849 7 197 0.0 0.0 0.00 0.00 0.00 95 1012.9
20260506101345 7 184 0.0 3.2 0.00 0.00 0.00 95 1013.4
20260506100843 7 179 3.2 3.2 0.00 0.00 0.00 95 1013.4
20260506100341 7 182 1.6 1.6 0.00 0.00 0.00 95 1013.3
20260506095839 7 174 1.6 1.6 0.00 0.00 0.00 95 1013.3
20260506095336 7 184 1.6 3.2 0.00 0.00 0.00 95 1013.3
20260506094833 7 184 3.2 3.2 0.00 0.00 0.00 95 1013.8
20260506094332 7 186 0.0 3.2 0.00 0.00 0.00 95 1013.7
20260506093829 7 168 4.8 4.8 0.00 0.00 0.00 95 1013.3
20260506093326 7 179 1.6 4.8 0.00 0.00 0.00 95 1013.7
20260506092824 7 187 0.0 3.2 0.00 0.00 0.00 95 1013.4
20260506092321 7 189 0.0 1.6 0.00 0.00 0.00 95 1013.6
20260506091818 7 188 0.0 1.6 0.00 0.00 0.00 95 1013.5
20260506091316 7 198 0.0 1.6 0.00 0.00 0.00 95 1013.4
20260506090814 7 179 1.6 1.6 0.00 0.00 0.00 95 1012.9
20260506090311 7 211 0.0 0.0 0.00 0.00 0.00 95 1012.9
20260506085807 7 195 0.0 0.0 0.00 0.00 0.00 95 1013.1
20260506085305 7 190 0.0 0.0 0.00 0.00 0.00 95 1012.7
20260506084800 7 188 0.0 0.0 0.00 0.00 0.00 95 1012.8
20260506084256 7 176 0.0 1.6 0.00 0.00 0.00 95 1012.9
20260506083753 7 183 0.0 1.6 0.00 0.00 0.00 95 1012.9
20260506083251 7 205 0.0 1.6 0.00 0.00 0.00 95 1012.9
20260506082748 7 192 0.0 0.0 0.00 0.00 0.00 95 1013.1
20260506082243 7 187 0.0 1.6 0.00 0.00 0.00 95 1013.1
20260506081742 7 178 1.6 3.2 0.00 0.00 0.00 95 1013.2
20260506081239 7 181 1.6 3.2 0.00 0.00 0.00 95 1013.3
20260506080737 7 162 3.2 3.2 0.00 0.00 0.00 95 1013.4
20260506080233 7 175 3.2 3.2 0.00 0.00 0.00 95 1013.6
20260506073217 7 173 1.6 8.0 0.00 0.00 0.00 94 1013.5
20260506072714 7 213 1.6 3.2 0.00 0.00 0.00 94 1013.7
20260506072212 7 223 3.2 4.8 0.00 0.00 0.00 94 1013.4
20260506071709 7 253 4.8 4.8 0.00 0.00 0.00 94 1013.1
20260506071207 7 186 3.2 4.8 0.00 0.00 0.00 94 1013.3
20260506070703 7 216 1.6 1.6 0.00 0.00 0.00 94 1013.2
20260506070201 7 170 1.6 3.2 0.00 0.00 0.00 94 1012.7
20260506062137 7 182 0.0 1.6 0.00 0.00 0.00 94 1013.1
20260506061633 7 190 1.6 1.6 0.00 0.00 0.00 94 1012.9
20260506061131 7 184 1.6 1.6 0.00 0.00 0.00 94 1013.2
20260506060629 7 178 3.2 3.2 0.00 0.00 0.00 94 1013.3
20260506060126 7 176 1.6 3.2 0.00 0.00 0.00 94 1013.2
20260506051058 8 216 0.0 1.6 0.00 0.00 0.00 93 1012.8
20260506050556 8 197 0.0 3.2 0.00 0.00 0.00 93 1012.6
20260506045046 8 182 0.0 1.6 0.00 1.02 1.02 93 1012.4
20260506044544 8 156 1.6 1.6 0.13 1.02 1.02 93 1012.7
20260506044041 8 155 3.2 3.2 0.13 1.02 1.02 93 1012.6
20260506043538 8 168 1.6 3.2 0.00 0.99 0.99 93 1012.7
20260506043036 8 164 1.6 3.2 0.00 0.99 0.99 93 1012.7
20260506042535 8 171 4.8 8.0 0.00 0.99 0.99 93 1013.1
20260506042033 8 179 4.8 4.8 0.00 0.99 0.99 93 1013.2
20260506041531 8 168 1.6 1.6 0.00 0.99 0.99 93 1012.7
20260506041027 8 201 0.0 1.6 0.00 0.99 0.99 93 1013.3
20260506040525 8 178 1.6 3.2 0.00 0.99 0.99 92 1012.9
20260506040021 8 196 0.0 1.6 0.00 0.99 0.99 92 1012.9
20260506035518 8 155 3.2 3.2 0.00 0.99 0.99 92 1012.8
20260506035015 8 183 1.6 1.6 0.00 0.99 0.99 92 1013.2
20260506034512 8 211 0.0 1.6 0.00 0.99 0.99 92 1012.6
20260506034009 8 201 0.0 1.6 0.00 0.99 0.99 92 1012.8
20260506033507 8 213 0.0 1.6 0.00 0.99 0.99 92 1012.8
20260506033004 8 172 1.6 1.6 0.00 0.99 0.99 92 1012.9
20260506032501 8 188 0.0 1.6 0.00 0.99 0.99 92 1012.9
20260506031957 8 180 1.6 3.2 0.00 0.99 0.99 92 1012.9
20260506031455 8 174 1.6 8.0 0.00 0.99 0.99 92 1013.2
20260506030952 8 159 3.2 3.2 0.18 0.99 0.99 91 1013.1
20260506030450 8 187 0.0 1.6 0.00 0.97 0.97 91 1013.2
20260506025946 8 176 1.6 3.2 0.18 0.97 0.97 91 1013.2
20260506025443 8 190 0.0 1.6 0.00 0.94 0.94 91 1012.9
20260506024940 8 146 3.2 4.8 0.13 0.94 0.94 91 1012.9
20260506024437 8 170 1.6 1.6 0.18 0.91 0.91 91 1012.9
20260506023932 8 164 0.0 8.0 0.18 0.91 0.91 91 1012.8
20260506023430 8 191 0.0 1.6 0.13 0.89 0.89 91 1012.9
20260506022926 8 182 3.2 3.2 0.00 0.86 0.86 91 1012.8
20260506022424 8 177 3.2 3.2 0.00 0.86 0.86 91 1012.7
20260506021922 8 178 1.6 1.6 0.00 0.86 0.86 91 1012.6
20260506021419 8 170 1.6 3.2 0.00 0.86 0.86 91 1012.9
20260506020916 8 178 1.6 3.2 0.18 0.86 0.86 91 1012.7
20260506020414 8 176 1.6 3.2 0.00 0.84 0.84 91 1012.7
20260506015910 8 183 1.6 3.2 0.00 0.84 0.84 91 1012.5
20260506015408 8 177 1.6 3.2 0.00 0.84 0.84 91 1012.2
20260506014905 8 176 3.2 3.2 0.13 0.84 0.84 90 1012.3
20260506014402 8 178 1.6 3.2 0.00 0.81 0.81 90 1011.9
20260506013858 8 179 1.6 3.2 0.18 0.81 0.81 90 1012.0
20260506013356 8 180 1.6 3.2 0.18 0.81 0.81 90 1011.7
20260506012852 8 189 0.0 0.0 0.00 0.79 0.79 90 1011.4
20260506012349 8 189 0.0 0.0 0.00 0.79 0.79 90 1011.6
20260506011846 8 189 0.0 0.0 0.13 0.79 0.79 90 1011.3
20260506011343 8 191 0.0 0.0 0.13 0.79 0.79 90 1011.5
20260506010840 8 185 0.0 0.0 0.00 0.76 0.76 89 1011.6
20260506010338 8 179 0.0 1.6 0.00 0.76 0.76 89 1011.4
20260506005835 8 180 1.6 1.6 0.18 0.76 0.76 89 1011.7
20260506005332 8 194 0.0 0.0 0.13 0.74 0.74 89 1011.5
20260506004827 8 204 0.0 0.0 0.13 0.74 0.74 88 1011.4
20260506004326 8 211 0.0 0.0 0.00 0.71 0.71 88 1011.6
20260506003821 8 197 0.0 0.0 0.18 0.71 0.71 88 1011.5
20260506003318 8 205 0.0 1.6 0.00 0.69 0.69 88 1011.6
20260506002814 8 179 1.6 1.6 0.13 0.69 0.69 88 1011.5
20260506002311 8 199 0.0 0.0 0.00 0.66 0.66 87 1011.3
20260506001806 8 199 0.0 0.0 0.18 0.66 0.66 86 1011.0
20260506001304 8 196 0.0 0.0 0.18 0.66 0.66 85 1011.0
20260506000801 8 196 0.0 0.0 0.00 0.64 0.64 84 1010.9
20260506000258 8 207 0.0 0.0 0.00 0.64 0.64 83 1011.0
20260505235755 8 219 0.0 1.6 0.00 0.64 0.64 83 1011.1
20260505235253 8 211 1.6 3.2 0.00 0.64 0.64 83 1011.3
20260505234749 8 230 0.0 0.0 0.00 0.64 0.64 83 1011.0
20260505234247 8 251 1.6 4.8 0.00 0.64 0.64 83 1010.8
20260505233743 8 259 1.6 3.2 0.00 0.64 0.64 84 1010.8
20260505233242 9 27 4.8 4.8 0.00 0.64 0.64 84 1010.8
20260505232738 8 255 0.0 1.6 0.00 0.64 0.64 84 1010.8
20260505232236 8 34 1.6 4.8 0.18 0.64 0.64 83 1011.0
20260505231732 8 66 1.6 1.6 0.18 0.64 0.64 83 1010.8
20260505231231 8 54 1.6 4.8 0.00 0.61 0.61 83 1010.9
20260505230729 8 13 3.2 4.8 0.00 0.61 0.61 82 1011.2
20260505230226 8 49 1.6 4.8 0.00 0.61 0.61 82 1010.9
20260505225722 8 74 3.2 4.8 0.00 0.61 0.61 82 1011.1
20260505225219 8 37 1.6 3.2 0.00 0.61 0.61 82 1011.3
20260505224714 8 2 3.2 4.8 0.00 0.61 0.61 82 1011.2
20260505224212 8 43 0.0 3.2 0.00 0.61 0.61 82 1011.4
20260505223710 8 323 0.0 3.2 0.00 0.61 0.61 82 1011.2
20260505223206 9 19 3.2 3.2 0.00 0.61 0.61 82 1011.2
20260505222702 8 22 1.6 4.8 0.00 0.61 0.61 81 1011.4
20260505222158 8 131 0.0 1.6 0.00 0.61 0.61 82 1011.4
20260505221655 8 291 3.2 8.0 0.00 0.61 0.61 82 1011.3
20260505221152 8 26 1.6 3.2 0.00 0.61 0.61 82 1011.3
20260505220649 8 276 3.2 9.7 0.00 0.61 0.61 82 1011.1
20260505220147 9 5 3.2 3.2 0.00 0.61 0.61 82 1011.3
20260505215644 9 31 3.2 4.8 0.13 0.61 0.61 82 1011.4
20260505215142 9 307 4.8 4.8 0.13 0.61 0.61 82 1011.1
20260505214640 9 320 1.6 1.6 0.00 0.58 0.58 83 1011.3
20260505214137 9 11 3.2 3.2 0.00 0.58 0.58 83 1011.2
20260505213634 9 60 1.6 3.2 0.18 0.58 0.58 83 1011.3
20260505213131 9 350 4.8 8.0 0.18 0.58 0.58 83 1011.5
20260505212627 9 2 6.4 8.0 0.13 0.56 0.56 84 1011.4
20260505212125 9 325 0.0 3.2 0.13 0.56 0.56 84 1011.3
20260505211621 9 352 0.0 4.8 0.00 0.53 0.53 84 1011.2
20260505211119 9 39 4.8 9.7 0.00 0.53 0.53 83 1011.3
20260505210615 9 13 8.0 9.7 0.00 0.53 0.53 83 1011.2
20260505210112 9 359 4.8 8.0 0.18 0.53 0.53 83 1011.4
20260505205609 9 38 1.6 8.0 0.00 0.51 0.51 82 1011.5
20260505205107 9 3 4.8 11.3 0.00 0.51 0.51 82 1011.6
20260505204604 10 315 3.2 11.3 0.00 0.51 0.51 83 1011.7
20260505204102 9 348 11.3 12.9 0.00 0.51 0.51 83 1011.6
20260505203558 9 352 3.2 11.3 0.00 0.51 0.51 83 1011.6
20260505203055 10 353 3.2 4.8 0.00 0.51 0.51 83 1011.5
20260505202551 9 289 6.4 11.3 0.00 0.51 0.51 82 1011.9
20260505202047 9 333 4.8 11.3 0.00 0.51 0.51 82 1012.1
20260505201544 9 355 4.8 11.3 0.00 0.51 0.51 83 1011.9
20260505201042 10 347 4.8 12.9 0.00 0.51 0.51 83 1011.9
20260505200539 9 7 4.8 11.3 0.00 0.51 0.51 83 1011.9
20260505200036 10 61 4.8 8.0 0.00 0.51 0.51 83 1012.0
20260505195532 10 41 4.8 14.5 0.13 0.51 0.51 84 1012.1
20260505195030 10 19 9.7 12.9 0.13 0.51 0.51 84 1012.1
20260505194527 10 325 9.7 14.5 0.00 0.48 0.48 84 1012.4
20260505194022 10 344 3.2 4.8 0.00 0.48 0.48 84 1012.4
20260505193520 9 303 1.6 4.8 0.00 0.48 0.48 84 1012.4
20260505193017 9 342 9.7 11.3 0.00 0.48 0.48 84 1012.2
20260505192516 9 339 4.8 9.7 0.00 0.48 0.48 85 1012.2
20260505192013 9 358 8.0 9.7 0.00 0.48 0.48 85 1012.5
20260505191511 8 321 14.5 17.7 0.18 0.48 0.48 85 1012.4
20260505191009 9 8 4.8 12.9 0.13 0.46 0.46 86 1012.7
20260505190503 9 321 8.0 9.7 0.13 0.46 0.46 86 1012.8
20260505185958 9 251 4.8 9.7 0.18 0.43 0.43 86 1013.1
20260505185456 9 318 1.6 12.9 0.18 0.43 0.43 86 1013.2
20260505184952 9 45 1.6 8.0 0.13 0.41 0.41 86 1013.1
20260505184449 9 236 1.6 8.0 0.13 0.41 0.41 86 1012.9
20260505183945 9 266 4.8 12.9 0.00 0.38 0.38 85 1013.3
20260505183443 9 293 4.8 9.7 0.18 0.38 0.38 85 1012.8
20260505182939 9 313 1.6 9.7 0.18 0.38 0.38 85 1013.1
20260505182436 9 308 9.7 12.9 0.13 0.36 0.36 84 1012.8
20260505181932 9 314 6.4 11.3 0.13 0.36 0.36 84 1012.6
20260505181430 9 259 6.4 9.7 0.18 0.33 0.33 84 1012.8
20260505180927 9 347 6.4 9.7 0.18 0.33 0.33 83 1012.7
20260505180423 10 269 14.5 22.5 0.18 0.30 0.30 83 1012.8
20260505175920 10 264 4.8 9.7 0.30 0.30 0.30 82 1012.8
20260505175416 10 236 6.4 9.7 0.30 0.28 0.28 82 1012.7
20260505174912 10 2 3.2 11.3 0.00 0.23 0.23 80 1012.4
20260505174410 10 238 1.6 16.1 0.13 0.23 0.23 79 1012.5
20260505173906 10 277 4.8 8.0 0.00 0.20 0.20 78 1012.2
20260505173402 10 276 8.0 9.7 0.00 0.20 0.20 77 1012.3
20260505172900 10 328 3.2 11.3 0.00 0.20 0.20 75 1012.2
20260505172357 11 320 8.0 9.7 0.00 0.20 0.20 73 1012.2
20260505171857 11 32 3.2 8.0 0.00 0.20 0.20 73 1012.1
20260505171354 11 24 1.6 11.3 0.00 0.20 0.20 73 1011.8
20260505170850 11 359 9.7 16.1 0.00 0.20 0.20 72 1012.2
20260505170348 11 332 19.3 22.5 0.00 0.20 0.20 72 1012.2
20260505165843 11 336 6.4 12.9 0.00 0.20 0.20 72 1012.3
20260505165339 11 335 3.2 8.0 0.00 0.20 0.20 72 1012.1
20260505164834 11 340 4.8 8.0 0.00 0.20 0.20 72 1012.2
20260505164331 11 349 3.2 8.0 0.00 0.20 0.20 73 1011.9
20260505163830 10 266 6.4 14.5 0.00 0.20 0.20 74 1012.0
20260505163328 10 323 8.0 12.9 0.00 0.20 0.20 73 1011.9
20260505162826 11 282 8.0 14.5 0.00 0.20 0.20 72 1011.8
20260505162322 10 8 4.8 9.7 0.00 0.20 0.20 73 1012.0
20260505161819 10 82 1.6 4.8 0.00 0.20 0.20 72 1011.9
20260505161316 10 0 4.8 4.8 0.00 0.20 0.20 73 1011.9
20260505160814 10 47 1.6 12.9 0.00 0.20 0.20 72 1011.7
20260505160312 10 347 3.2 9.7 0.00 0.20 0.20 72 1011.8
20260505153250 10 20 4.8 9.7 0.00 0.20 0.20 72 1011.0
20260505152747 10 357 4.8 8.0 0.00 0.20 0.20 72 1010.7
20260505152243 10 4 8.0 12.9 0.00 0.20 0.20 73 1010.7
20260505151738 10 115 6.4 17.7 0.00 0.20 0.20 73 1010.8
20260505151236 10 16 8.0 9.7 0.00 0.20 0.20 74 1011.0
20260505150732 10 334 16.1 22.5 0.00 0.20 0.20 73 1010.7
20260505150229 10 350 14.5 24.1 0.00 0.20 0.20 73 1010.7
20260505140154 8 17 4.8 9.7 0.00 0.20 0.20 82 1010.5
20260505130118 9 26 3.2 3.2 0.30 0.08 0.08 74 1011.6
20260505124607 10 15 8.0 12.9 0.00 0.03 0.03 69 1011.8
20260505124104 10 358 14.5 16.1 0.00 0.03 0.03 70 1011.7
20260505123600 10 315 11.3 14.5 0.00 0.03 0.03 70 1011.6
20260505123057 10 355 9.7 14.5 0.00 0.03 0.03 71 1011.6
20260505122553 10 358 6.4 12.9 0.00 0.03 0.03 71 1011.3
20260505122051 10 304 4.8 11.3 0.00 0.03 0.03 72 1011.3
20260505121547 10 271 6.4 12.9 0.00 0.03 0.03 71 1011.3
20260505121044 10 293 9.7 22.5 0.00 0.03 0.03 70 1011.2
20260505120540 10 288 9.7 12.9 0.00 0.03 0.03 69 1011.0
20260505120036 10 305 11.3 12.9 0.00 0.03 0.03 69 1010.9
20260505115530 11 288 11.3 12.9 0.00 0.03 0.03 68 1010.5
20260505115028 11 259 8.0 22.5 0.00 0.03 0.03 64 1010.6
20260505114525 11 342 12.9 27.4 0.00 0.03 0.03 64 1010.2
20260505114021 11 340 12.9 29.0 0.00 0.03 0.03 65 1010.0
20260505113518 11 264 11.3 20.9 0.00 0.03 0.03 66 1009.6
20260505113014 11 20 8.0 20.9 0.00 0.03 0.03 69 1010.0
20260505112510 11 335 12.9 17.7 0.00 0.03 0.03 70 1009.7
20260505112008 11 37 8.0 12.9 0.00 0.03 0.03 71 1009.3
20260505111502 11 327 3.2 11.3 0.00 0.03 0.03 70 1009.1
20260505110959 11 273 3.2 8.0 0.00 0.03 0.03 71 1009.1
20260505110455 11 328 3.2 4.8 0.00 0.03 0.03 73 1009.2